ARIANE 5 R/B, 41795

Orbit data source: Space-Track

ARIANE 5 R/B, 41795 is space debris in HEO originally from a launch on Wed, 05 Oct 2016 UTC launched from the French Guiana (FRGUI). Debris objects in space refer to the collection of defunct objects orbiting the Earth. Examples of debris include non-operational satellites, rocket bodies, and fragments generated from explosions, collisions, or faulty payload assembly.

Loading next visibility...
Identifier
41795, 2016-060C
Orbit
HEO
Country
Flag of FRFR
Related business
Manufacturer
Airbus Safran
Mission
Spacecraft
Bus & Motor
ESC-A, Unknown motor
Mass
~5,000 kg wet, ~5,000 kg dry
Launch date (UTC)
2016-10-05 (9 years ago)
Launch vehicle
Unknown
Launch site
French Guiana (FRGUI)
Object type
Payload
Rocket body
Debris
Shape & HBR
Cyl + 1 Nozzle, 3.5 m
Radar Cross Section
41.627 m², Large (>1 m²)

Expand to show TLE details & history
Last TLE update: 9 hours ago

TLE from 9 hours ago
0 ARIANE 5 R/B
1 41795U 16060C   26035.68094095  .00004522  00000-0  71133-3 0  9997
2 41795   6.1191  21.8938 6920805  35.2070 355.1467  2.75790230 84035
Epoch: 2026-02-04T16:20Z
TLE epoch observation values (Epoch: 2026-02-04T16:20:33.298Z)
Latitude
0.00029°
Longitude
2.0356°
Altitude
785.704 km
Speed
9.629 km/s
True Right ascension
01h 28m 04s
True Declination
0° 00' 01"
Sunlit
Object was in daylight at epoch
Visualization orbit readout
Latitude
Unknown
Longitude
Unknown
Altitude
Unknown
Speed
Unknown
Apparent Right ascension
Unknown
Apparent Declination
Unknown
Sunlit
N/A
Visualization observer readout
Local Sidereal Time
03:18:31
Azimuth
Unknown
Elevation
Unknown
Doppler factor
Unknown
Orbital elements
Apogee altitude
29,975.308 km
Perigee altitude
237.349 km
Semi-major axis
21,484.466 km
Eccentricity
0.69208
Inclination
6.1191°
RAAN
21.8938°
Arg. of periapsis
35.207°
True anomaly
324.93614°
Mean anomaly
355.1467°
Eccentric anomaly
344.64967°
Mean motion
0.68922 °/min
Orbital period
522.33 mins
BSTAR
0.00071133
Loading maneuver chart data...
Computing Atmospheric mass density...
Loading historical data...
Loading historical data...
Loading historical data...
Loading historical data...
Loading historical data...
Loading historical data...
Loading historical data...
Other satellites on launch #60 in the year 2016 (2016-10-05 UTC)

Documentation

Showing up to 5 results
|